User: anonymous   Login
Location: Heidgraben
(53.7081°N, 9.6576°E)
Time: 07:25:41
(UTC+00:00)
Language:

SL-16 R/B - Orbit

View from above orbital plane
View from above orbital plane
View from above satellite
View from above satellite

Ground track
Ground track

The orbit data is extracted from the following two-line orbital elements,

1 31793U 07029B   20273.81835233 +.00000273 +00000-0 +16732-3 0  9992
2 31793 070.9778 027.1263 0001698 261.1883 251.0074 14.14432951684435
Epoch (UTC): 29 September 2020 19:38:25
Eccentricity: 0.0001698
inclination: 70.9778°
perigee height: 843 km
apogee height: 845 km
right ascension of ascending node: 27.1263°
argument of perigee: 261.1883°
revolutions per day: 14.14432951
mean anomaly at epoch: 251.0074°
orbit number at epoch: 68443

The dashed part of the orbit path shows where the satellite is in the earth's shadow,  

DLR